DEMHO EDDG-EDLW

Flight info

Callsign DEMHO
Flight time 0h 22m
Altitude
Route
Aircraft

Departure

Time 2026-04-26 13:05
Airport Münster Osnabrück Airport (EDDG)

Arrival

Time 2026-04-26 13:27
Airport Dortmund Airport (EDLW)
Time Latitude Longitude Altitude Speed Heading
2026-04-26 13:03 52.13280 7.68306 161 ft 18 kts 342°
2026-04-26 13:03 52.13358 7.68264 162 ft 12 kts 337°
2026-04-26 13:03 52.13424 7.68281 162 ft 16 kts 73°
2026-04-26 13:03 52.13517 7.68780 190 ft 70 kts 69°
2026-04-26 13:04 52.13692 7.69633 338 ft 83 kts 68°
2026-04-26 13:04 52.13713 7.70500 628 ft 84 kts 128°
2026-04-26 13:04 52.13054 7.70782 580 ft 111 kts 175°
2026-04-26 13:04 52.12263 7.70821 709 ft 112 kts 194°
2026-04-26 13:05 52.11565 7.70220 798 ft 116 kts 217°
2026-04-26 13:05 52.10945 7.69402 935 ft 114 kts 223°
2026-04-26 13:05 52.10397 7.68469 1037 ft 114 kts 234°
2026-04-26 13:05 52.09982 7.67400 1204 ft 111 kts 239°
2026-04-26 13:06 52.09567 7.66352 1354 ft 111 kts 232°
2026-04-26 13:06 52.09013 7.65424 1401 ft 118 kts 224°
2026-04-26 13:06 52.08440 7.64492 1528 ft 115 kts 224°
2026-04-26 13:06 52.07816 7.63681 1711 ft 114 kts 209°
2026-04-26 13:07 52.07139 7.63062 1982 ft 108 kts 209°
2026-04-26 13:07 52.06503 7.62451 2200 ft 114 kts 212°
2026-04-26 13:07 52.05821 7.61721 2303 ft 118 kts 213°
2026-04-26 13:07 52.05105 7.60962 2316 ft 129 kts 209°
2026-04-26 13:08 52.04287 7.60371 2325 ft 131 kts 202°
2026-04-26 13:08 52.03448 7.59791 2316 ft 132 kts 202°
2026-04-26 13:08 52.02602 7.59191 2320 ft 134 kts 202°
2026-04-26 13:08 52.01749 7.58593 2322 ft 132 kts 202°
2026-04-26 13:09 52.00923 7.57947 2319 ft 133 kts 208°
2026-04-26 13:09 52.00131 7.57217 2318 ft 127 kts 208°
2026-04-26 13:09 51.99374 7.56537 2321 ft 124 kts 208°
2026-04-26 13:09 51.98627 7.55857 2330 ft 122 kts 207°
2026-04-26 13:10 51.97900 7.55176 2326 ft 119 kts 208°
2026-04-26 13:10 51.97112 7.54660 2319 ft 126 kts 187°
2026-04-26 13:10 51.96247 7.54530 2328 ft 127 kts 181°
2026-04-26 13:10 51.95367 7.54472 2321 ft 127 kts 180°
2026-04-26 13:11 51.94518 7.54586 2314 ft 119 kts 168°
2026-04-26 13:11 51.93708 7.54785 2326 ft 119 kts 171°
2026-04-26 13:11 51.92887 7.55034 2322 ft 119 kts 160°
2026-04-26 13:11 51.92104 7.55492 2315 ft 122 kts 158°
2026-04-26 13:12 51.91323 7.55933 2313 ft 117 kts 159°
2026-04-26 13:12 51.90558 7.56362 2313 ft 116 kts 158°
2026-04-26 13:12 51.89780 7.56803 2329 ft 123 kts 158°
2026-04-26 13:12 51.88948 7.57141 2317 ft 121 kts 168°
2026-04-26 13:13 51.88118 7.57352 2326 ft 119 kts 165°
2026-04-26 13:13 51.87271 7.57566 2313 ft 122 kts 169°
2026-04-26 13:13 51.86453 7.57816 2333 ft 123 kts 157°
2026-04-26 13:13 51.85655 7.58352 2329 ft 121 kts 159°
2026-04-26 13:14 51.84886 7.58875 2309 ft 118 kts 156°
2026-04-26 13:14 51.84148 7.59426 2306 ft 115 kts 153°
2026-04-26 13:14 51.83457 7.60060 2313 ft 114 kts 152°
2026-04-26 13:14 51.82768 7.60687 2333 ft 115 kts 150°
2026-04-26 13:15 51.82055 7.61337 2310 ft 118 kts 152°
2026-04-26 13:15 51.81330 7.61890 2325 ft 115 kts 155°
2026-04-26 13:15 51.80578 7.62455 2324 ft 122 kts 156°
2026-04-26 13:15 51.80072 7.62840 2315 ft 121 kts 155°
2026-04-26 13:16 51.79047 7.63581 2268 ft 122 kts 160°
2026-04-26 13:16 51.78243 7.63889 2265 ft 116 kts 169°
2026-04-26 13:16 51.77454 7.64080 2258 ft 113 kts 172°
2026-04-26 13:16 51.76668 7.64321 2256 ft 120 kts 169°
2026-04-26 13:17 51.75004 7.64231 2268 ft 127 kts 206°
2026-04-26 13:17 51.74195 7.63652 2256 ft 125 kts 203°
2026-04-26 13:18 51.72624 7.62565 2252 ft 123 kts 205°
2026-04-26 13:18 51.71838 7.62019 2254 ft 125 kts 204°
2026-04-26 13:18 51.70268 7.60928 2253 ft 122 kts 205°
2026-04-26 13:19 51.69502 7.60408 2272 ft 119 kts 206°
2026-04-26 13:19 51.68740 7.59858 2268 ft 119 kts 205°
2026-04-26 13:19 51.67969 7.59351 2261 ft 118 kts 204°
2026-04-26 13:19 51.67181 7.58822 2268 ft 124 kts 204°
2026-04-26 13:20 51.66387 7.58285 2265 ft 125 kts 203°
2026-04-26 13:20 51.65575 7.57737 2260 ft 127 kts 204°
2026-04-26 13:20 51.64766 7.57176 2258 ft 124 kts 204°
2026-04-26 13:20 51.63961 7.56628 2253 ft 127 kts 204°
2026-04-26 13:21 51.63172 7.56078 2258 ft 122 kts 205°
2026-04-26 13:21 51.62650 7.55711 2272 ft 124 kts 204°
2026-04-26 13:21 51.61569 7.54979 2257 ft 131 kts 205°
2026-04-26 13:21 51.60756 7.54400 2251 ft 124 kts 205°
2026-04-26 13:22 51.59980 7.53861 2257 ft 120 kts 205°
2026-04-26 13:22 51.59203 7.53321 2262 ft 123 kts 205°
2026-04-26 13:22 51.58425 7.52792 2271 ft 122 kts 205°
2026-04-26 13:22 51.57636 7.52269 2244 ft 123 kts 199°
2026-04-26 13:23 51.56805 7.51826 2242 ft 123 kts 199°
2026-04-26 13:23 51.56012 7.51371 2303 ft 124 kts 195°
2026-04-26 13:23 51.55180 7.51303 2298 ft 121 kts 165°
2026-04-26 13:23 51.54407 7.51836 2234 ft 121 kts 153°
2026-04-26 13:24 51.53660 7.52409 2234 ft 111 kts 129°
2026-04-26 13:24 51.53548 7.53593 2150 ft 115 kts 78°
2026-04-26 13:24 51.53896 7.54771 2176 ft 114 kts 58°
2026-04-26 13:24 51.54281 7.55884 2188 ft 115 kts 59°
2026-04-26 13:25 51.54180 7.56921 2188 ft 100 kts 143°
2026-04-26 13:25 51.53455 7.56950 1872 ft 106 kts 186°
2026-04-26 13:25 51.52726 7.56805 1711 ft 104 kts 178°
2026-04-26 13:25 51.52048 7.56859 1617 ft 95 kts 169°
2026-04-26 13:26 51.51480 7.57098 1506 ft 82 kts 150°
2026-04-26 13:26 51.51036 7.57639 1390 ft 78 kts 110°
2026-04-26 13:26 51.50949 7.58514 1213 ft 83 kts 79°
2026-04-26 13:26 51.51195 7.59385 927 ft 88 kts 64°
2026-04-26 13:27 51.51489 7.60257 563 ft 91 kts 54°
2026-04-26 13:27 51.51780 7.61073 420 ft 75 kts 59°
2026-04-26 13:27 51.52003 7.61714 408 ft 51 kts 60°
2026-04-26 13:27 51.52139 7.62094 406 ft 29 kts 62°
2026-04-26 13:28 51.52164 7.62356 405 ft 14 kts 149°
2026-04-26 13:28 51.52087 7.62404 404 ft 14 kts 161°
2026-04-26 13:28 51.52014 7.62294 406 ft 18 kts 242°
2026-04-26 13:28 51.51975 7.62165 408 ft 20 kts 245°
2026-04-26 13:29 51.51898 7.61950 410 ft 24 kts 239°
2026-04-26 13:29 51.51813 7.61709 412 ft 26 kts 238°
2026-04-26 13:29 51.51720 7.61441 419 ft 30 kts 241°
2026-04-26 13:29 51.51600 7.61114 416 ft 36 kts 221°
2026-04-26 13:30 51.51474 7.60961 426 ft 22 kts 246°
2026-04-26 13:30 51.51400 7.60729 427 ft 24 kts 243°
2026-04-26 13:30 51.51316 7.60490 434 ft 26 kts 236°
2026-04-26 13:30 51.51224 7.60239 445 ft 27 kts 238°
2026-04-26 13:31 51.51162 7.60166 454 ft 6 kts 140°
2026-04-26 13:31 51.51177 7.60266 454 ft 17 kts 46°
2026-04-26 13:31 51.51202 7.60370 455 ft 0 kts 109°